sat.trackr.live / text

‹ back to catalog

STARLINK-30545

NORAD 58000 · 2023-153K

PAYLOAD ACTIVE UNKNOWN

§ Identity

Operator
Country
US
Launch date
2023-10-05
Launch site
AFETR
Launch vehicle
Mass (kg)
RCS (m²)

Purposes: comms

External: N2YO · Heavens-Above · Gunter

§ Orbital elements

Epoch: 2026-05-24T22:43:29.606880Z

Period
94.27 min
Inclination
43.0073°
Eccentricity
0.0001308
Mean motion
15.27587499 rev/d
Perigee alt
482.1 km
Apogee alt
483.9 km
Semi-major
6,861.2 km
B*
4.3636e-5
RAAN
355.9858°
Arg perigee
287.4453°
Mean anomaly
72.6256°
Rev number
14,656

§ Raw data

STARLINK-305451 58000U 23153K   26144.94687045  .00000939  00000+0  43636-4 0  99932 58000  43.0073 355.9858 0001308 287.4453  72.6256 15.27587499146567

JSON: /api/v1/satellites/58000 · /tle

For live sub-satellite position, see the globe view (requires WebGL).

§ Visibility from observer

Set your observer location to see the next 7 days of passes ≥ 10°. The values pass through the URL so the page stays shareable.

No JS? Fill the form by hand. The geolocation button needs JavaScript.